World > North America > United States > Massachusetts

Fitchburg, Massachusetts Regional Weather

Lat: 42.59N, Lon: 71.82W
Wx Zone: MAZ004Web Search

Helpful Tip: You can add this page to Bookmarks by pressing the Ctrl key & d key at the same time. Mac users press command & d.

Feedback
Fitchburg Weather Map
UTC Time: 3/2/2021, 22:22
Your Time:

Fitchburg, MA Regional Weather

Expires:202103022300;;378908
ASUS41 KOKX 022213
RWROKX

Regional Weather Roundup
National Weather Service New York NY
500 PM EST TUE MAR 02 2021

Note: "FAIR" indicates few or no clouds below 12,000 feet with no
significant weather and/or obstructions to visibility.


CTZ002-004>006-009-010-012-RIZ004-006-007-MAZ004-011-015-022300-
Southern New England

 In CT
  
CITY           SKY/WX    TMP DP  RH WIND       PRES   REMARKS
Bradley Intl   CLEAR     27  -4  26 NW13G24   30.04R WCI  16          
Hartford       CLEAR     30  -6  21 NW12      30.06S WCI  20          
Danbury        CLEAR     31   0  26 W12G23    30.08R WCI  22          
Wtrbury/Oxford CLEAR     27   0  31 NW12G23   30.04R WCI  17          
Norwalk Harbor   N/A    N/A N/A N/A W23G29      N/A                   
Bridgeport     CLEAR     32   3  29 W15G24    30.10R WCI  22          
Meriden        CLEAR     30  -4  23 W14G23    30.07R WCI  19          
New Haven      CLEAR     33   3  28 W16G22    30.08R WCI  23          
Chester        FAIR      30  -9  17 NW16G30   30.02S WCI  19          
Groton         CLEAR     30  -3  24 W21G30    30.02R WCI  17          
Willimantic    CLEAR     27  -2  28 NW12G21   30.01F WCI  17          

 In RI
  
CITY           SKY/WX    TMP DP  RH WIND       PRES   REMARKS
Providence     CLEAR     28  -4  25 W18G31    29.97R WCI  15          
Block Island   CLEAR     28   4  35 W18G28    30.02R WCI  15          
Westerly       CLEAR     28  -4  25 VRB7G17   30.01R WCI  21          
 
In MA
  
CITY           SKY/WX    TMP DP  RH WIND       PRES   REMARKS
Boston         CLEAR     27  -8  21 W20G31    29.93R WCI  13          
Worcester      CLEAR     23  -4  30 W18G30    29.90R WCI   9          
Westfield      CLEAR     26   0  32 NW9G18    30.02F WCI  17          
Provincetown   CLEAR     29   7  39 W26G33    29.90R WCI  14          
Nantucket      CLEAR     28   9  44 W23G35    29.93R WCI  14          
$$


SKY/WX - Weather  TMP - Temperature  DP - Dew Point  RH - Relative Humidity
WIND - Wind Direction/Speed PRES - Barometric Pressure VSB - Visibility
WCI - Wind Chill Index E13G22 Wind - East Wind 13 mph/Gusts of 22 mph